[[{"header":{"parameterUnit":"m.s-1","parameterCategory":1,"la1":30.2991,"la2":30.254,"lo1":-89.0895,"lo2":-89.0444,"dy":0.0017,"dx":0.0017,"nx":28,"ny":28,"refTime":"2024-05-29T03:00:00:Z","depth":0,"parameterNumber":2,"parameterNumberName":"U-component_of_WINDS"},"data":[0,0,0,0,0,0,0,0,0,0,0,0,0,0,0,0,0,0,0,0,0,0,0,0,0,0,0,0,0,0,0,0,0,0,0,0,0,0,0,0,0,0,0,0,0,0,0,0,0,0,0,0,0,0,0,0,0,0,-3.2864,-3.2864,0,-3.2869,-3.2869,-3.2869,-3.2828,-3.2827,-3.2826,-3.2825,-3.2829,-3.283,-3.2831,0,0,0,0,0,0,0,0,0,0,0,0,0,-3.2823,-3.2824,-3.2864,-3.2864,-3.2864,-3.2869,-3.2869,-3.2869,-3.2828,-3.2827,-3.2826,-3.2824,-3.2829,-3.283,-3.2831,0,0,0,0,0,0,0,0,0,0,0,0,0,-3.2836,-3.2824,-3.2864,-3.2845,-3.2843,-3.2869,-3.2869,-3.2869,-3.2829,-3.2827,-3.2825,-3.2824,-3.2828,-3.283,-3.2832,-3.2876,0,0,-3.2837,-3.2838,0,0,0,0,0,0,0,0,-3.2835,-3.2837,-3.2848,-3.2846,-3.2844,-3.2846,-3.2856,-3.2871,-3.2829,-3.2834,-3.2825,-3.2823,-3.2836,-3.2837,-3.2841,-3.2876,-3.2876,-3.2837,-3.2838,-3.2839,-3.2839,0,0,0,0,0,0,0,-3.2834,-3.2837,-3.2866,-3.2848,-3.2846,-3.2836,-3.2836,-3.2858,-3.2844,-3.2833,-3.2831,-3.2832,-3.2835,-3.284,-3.2841,-3.2876,-3.2837,-3.2839,-3.284,-3.284,-3.2949,-3.2951,0,0,0,0,0,0,-3.2836,-3.2836,-3.2866,-3.2866,-3.2835,-3.2839,-3.2838,-3.2847,-3.2844,-3.2842,-3.2833,-3.283,-3.2838,-3.2839,-3.2841,-3.2893,-3.2839,-3.284,-3.2841,-3.2947,-3.2949,-3.2951,0,0,0,0,0,0,-3.2835,-3.2839,-3.2866,-3.285,-3.2853,-3.2841,-3.2851,-3.2848,-3.2853,-3.2844,-3.2841,-3.2841,-3.2837,-3.2839,-3.2868,-3.2892,-3.2841,-3.2843,-3.2945,-3.2948,-3.295,-3.2996,0,0,0,0,0,0,-3.2834,-3.2839,-3.2855,-3.2851,-3.2854,-3.2892,-3.2853,-3.2849,-3.2856,-3.2852,-3.285,-3.2848,-3.2835,-3.2865,-3.287,-3.2894,-3.2844,-3.2943,-3.2946,-3.2949,-3.2993,-3.3,-3.3007,0,0,0,0,0,-3.2833,-3.2867,-3.2856,-3.2859,-3.2874,-3.2893,-3.2895,-3.2879,-3.2858,-3.2875,-3.2869,-3.2848,-3.289,-3.2869,-3.2873,-3.2898,-3.2941,-3.2945,-3.2949,-3.2989,-3.2999,-3.3007,0,0,0,0,0,0,-3.2873,-3.2866,-3.2853,-3.2888,-3.2892,-3.2886,-3.2906,-3.289,-3.2899,-3.2895,-3.2875,-3.2875,-3.2908,-3.2906,-3.2883,-3.2942,-3.2912,-3.2917,-3.2941,-3.295,-3.2957,-3.2956,-3.2846,0,0,0,0,0,-3.2887,-3.2903,-3.2896,-3.2927,-3.293,-3.2918,-3.2926,-3.2914,-3.2917,-3.2918,-3.2914,-3.2918,-3.2932,-3.2941,-3.2953,-3.2993,-3.2992,-3.3013,-3.302,-3.3026,-3.303,-3.3052,-3.3061,-3.2965,-3.2965,-3.2965,0,0,-3.2913,-3.2912,-3.2923,-3.2935,-3.2936,-3.2954,-3.2919,-3.2939,-3.2951,-3.2921,-3.2947,-3.2946,-3.2949,-3.2984,-3.2999,-3.2983,-3.3057,-3.3032,-3.3037,-3.3037,-3.3057,-3.3066,-3.3074,-3.2968,-3.2967,-3.2967,0,0,-3.2971,-3.2972,-3.2997,-3.3,-3.3003,-3.2996,-3.3002,-3.3,-3.2998,-3.3025,-3.3002,-3.3018,-3.3042,-3.3045,-3.305,-3.3113,-3.3094,-3.3118,-3.3154,-3.3176,-3.3183,-3.319,-3.3211,-3.3219,-3.3122,-3.3122,-3.3122,0,-3.3003,-3.3028,-3.3013,-3.3034,-3.3041,-3.3015,-3.3042,-3.3045,-3.3052,-3.3058,-3.3041,-3.3072,-3.3072,-3.3107,-3.3123,-3.3128,-3.3135,-3.3116,-3.3183,-3.319,-3.3196,-3.3216,-3.3224,-3.3125,-3.3125,-3.3125,-3.3124,0,-3.3068,-3.3086,-3.3107,-3.3115,-3.3124,-3.3148,-3.3137,-3.3149,-3.3137,-3.3132,-3.316,-3.3161,-3.3173,-3.3181,-3.3169,-3.3215,-3.3206,-3.3187,-3.3156,-3.3208,-3.3227,-3.3234,-3.3129,-3.3128,-3.3127,-3.3127,0,0,-3.3148,-3.3149,-3.3157,-3.3161,-3.3164,-3.3177,-3.3201,-3.3214,-3.3224,-3.3231,-3.325,-3.3273,-3.3256,-3.3261,-3.3251,-3.327,-3.3319,-3.3248,-3.3248,-3.326,-3.3369,-3.3382,-3.3391,-3.3308,-3.3309,-3.331,-3.3368,0,-3.3203,-3.3243,-3.3231,-3.3271,-3.3288,-3.3266,-3.3287,-3.3291,-3.3288,-3.3302,-3.3298,-3.3314,-3.3291,-3.3295,-3.3313,-3.3309,-3.334,-3.3305,-3.3325,-3.3326,-3.3322,-3.3401,-3.3414,-3.3468,-3.3376,-3.3377,-3.3378,0,-3.3271,-3.3282,-3.3324,-3.3325,-3.3332,-3.3351,-3.3362,-3.3376,-3.3381,-3.3378,-3.3386,-3.3372,-3.3396,-3.3367,-3.34,-3.3377,-3.3385,-3.3385,-3.3387,-3.3386,-3.3353,-3.3401,-3.3485,-3.3493,-3.3389,-3.3388,-3.3387,0,-3.3324,-3.3349,-3.3377,-3.3381,-3.3384,-3.3398,-3.34,-3.3404,-3.3412,-3.3423,-3.3428,-3.3442,-3.3448,-3.3459,-3.345,-3.343,-3.3485,-3.3455,-3.3482,-3.3482,-3.3492,-3.3491,-3.3577,-3.3501,-3.3501,-3.35,-3.35,0,-3.3385,-3.3412,-3.3401,-3.3418,-3.3447,-3.3435,-3.3464,-3.3464,-3.3468,-3.3485,-3.3468,-3.3484,-3.3472,-3.3488,-3.3481,-3.3509,-3.3513,-3.351,-3.3508,-3.3511,-3.3511,-3.3514,-3.3509,-3.3503,-3.3502,-3.3502,-3.3501,0,-3.3448,-3.3441,-3.3471,-3.3472,-3.3473,-3.3495,-3.3496,-3.3512,-3.3509,-3.3531,-3.3536,-3.353,-3.3548,-3.3541,-3.3559,-3.3555,-3.3591,-3.3584,-3.3589,-3.3586,-3.3613,-3.361,-3.3703,-3.3714,-3.3632,-3.3633,-3.3633,0,-3.3486,-3.3506,-3.351,-3.352,-3.3524,-3.3541,-3.355,-3.354,-3.355,-3.356,-3.3575,-3.3592,-3.3604,-3.3634,-3.3632,-3.3647,-3.3639,-3.3671,-3.3641,-3.3644,-3.3638,-3.3636,-3.3638,-3.3676,-3.3677,-3.3678,-3.3678,0,-3.3555,-3.3551,-3.3565,-3.3579,-3.3591,-3.3601,-3.361,-3.362,-3.361,-3.3623,-3.3641,-3.3651,-3.3671,-3.3688,-3.3702,-3.3704,-3.369,-3.3688,-3.3695,-3.3697,-3.3698,-3.3697,-3.3603,-3.3685,-3.3685,-3.3684,-3.3684,-3.3683,-3.3605,-3.3622,-3.3628,-3.3645,-3.3651,-3.366,-3.3676,-3.3675,-3.369,-3.3706,-3.3699,-3.3721,-3.3728,-3.3744,-3.3749,-3.3766,-3.3753,-3.3763,-3.3766,-3.3768,-3.3771,-3.3698,-3.3769,-3.3768,-3.3768,-3.3768,-3.3768,0,-3.3672,-3.3675,-3.3691,-3.3704,-3.3718,-3.3705,-3.3715,-3.3727,-3.3746,-3.3754,-3.3767,-3.3789,-3.3806,-3.3806,-3.3822,-3.3835,-3.3829,-3.384,-3.3837,-3.3838,-3.3782,-3.3773,-3.3844,-3.3844,-3.3844,-3.3844,-3.3844,-3.3844,-3.3708,-3.3736,-3.3734,-3.3765,-3.3769,-3.379,-3.3796,-3.3805,-3.3811,-3.3836,-3.3851,-3.3851,-3.3856,-3.3873,-3.3888,-3.3888,-3.3894,-3.3906,-3.3904,-3.385,-3.3842,-3.3835,-3.3827,-3.3908,-3.3908,-3.3959,-3.3959,-3.3959]},{"header":{"parameterUnit":"m.s-1","parameterCategory":1,"la1":30.2991,"la2":30.254,"lo1":-89.0895,"lo2":-89.0444,"dy":0.0017,"dx":0.0017,"nx":28,"ny":28,"refTime":"2024-05-29T03:00:00:Z","depth":0,"parameterNumber":3,"parameterNumberName":"V-component_of_WINDS"},"data":[0,0,0,0,0,0,0,0,0,0,0,0,0,0,0,0,0,0,0,0,0,0,0,0,0,0,0,0,0,0,0,0,0,0,0,0,0,0,0,0,0,0,0,0,0,0,0,0,0,0,0,0,0,0,0,0,0,0,3.6682,3.6683,0,3.6699,3.6699,3.6699,3.6736,3.6737,3.6737,3.6738,3.675,3.6749,3.6749,0,0,0,0,0,0,0,0,0,0,0,0,0,3.6678,3.6678,3.6682,3.6683,3.6683,3.6699,3.6699,3.6699,3.6736,3.6737,3.6738,3.6738,3.675,3.6749,3.6749,0,0,0,0,0,0,0,0,0,0,0,0,0,3.6686,3.6678,3.6682,3.6703,3.6705,3.6699,3.6699,3.6699,3.6736,3.6737,3.6738,3.6739,3.675,3.6749,3.6749,3.6722,0,0,3.6747,3.6747,0,0,0,0,0,0,0,0,3.6685,3.6686,3.67,3.6702,3.6704,3.6717,3.6702,3.6707,3.6735,3.6724,3.6738,3.6739,3.6737,3.6738,3.6738,3.6723,3.6723,3.6747,3.6747,3.6746,3.6746,0,0,0,0,0,0,0,3.6685,3.6685,3.6689,3.67,3.6702,3.671,3.6713,3.6703,3.6724,3.6725,3.6728,3.6729,3.6739,3.6739,3.6739,3.6724,3.6747,3.6746,3.6746,3.6746,3.6688,3.6687,0,0,0,0,0,0,3.6682,3.6685,3.6688,3.6689,3.6697,3.6709,3.6712,3.6711,3.6724,3.6727,3.6728,3.6731,3.6739,3.674,3.6739,3.671,3.6746,3.6746,3.6745,3.669,3.6688,3.6687,0,0,0,0,0,0,3.6682,3.6682,3.6688,3.6688,3.6689,3.6708,3.6707,3.6711,3.6711,3.6727,3.673,3.6725,3.674,3.674,3.6727,3.6711,3.6746,3.6745,3.6691,3.6689,3.6688,3.6651,0,0,0,0,0,0,3.6681,3.6682,3.6673,3.6687,3.6689,3.6676,3.6706,3.6711,3.6711,3.6714,3.6725,3.6727,3.6741,3.6728,3.6726,3.6711,3.6745,3.6692,3.669,3.6688,3.6654,3.6648,3.6643,0,0,0,0,0,3.6681,3.666,3.6672,3.6672,3.6678,3.6675,3.6676,3.6694,3.6709,3.67,3.671,3.6727,3.6713,3.6726,3.6725,3.6709,3.6694,3.6691,3.6688,3.6656,3.6649,3.6643,0,0,0,0,0,0,3.664,3.6662,3.6676,3.6659,3.6665,3.6681,3.667,3.6686,3.6686,3.6689,3.671,3.6712,3.6696,3.6701,3.6715,3.6685,3.6706,3.6703,3.6682,3.6676,3.6671,3.6669,3.6744,0,0,0,0,0,3.663,3.6627,3.6646,3.6629,3.6632,3.665,3.6649,3.6663,3.6669,3.6671,3.6681,3.6685,3.6682,3.6679,3.6677,3.6655,3.6657,3.6643,3.6638,3.6634,3.6631,3.662,3.6614,3.6678,3.6678,3.6678,0,0,3.6607,3.6619,3.6615,3.6621,3.6628,3.6623,3.6652,3.6645,3.6642,3.667,3.6659,3.6666,3.6672,3.6654,3.6647,3.6658,3.6614,3.663,3.6627,3.6626,3.6617,3.6611,3.6605,3.6676,3.6677,3.6677,0,0,3.6564,3.6573,3.6561,3.6567,3.6577,3.659,3.6587,3.6601,3.6607,3.6597,3.6618,3.6614,3.6607,3.6611,3.6612,3.6573,3.6588,3.6571,3.6544,3.6534,3.6529,3.6524,3.6511,3.6505,3.6568,3.6568,3.6568,0,3.6534,3.653,3.6552,3.6545,3.6547,3.6574,3.6562,3.6566,3.6574,3.6574,3.6587,3.6581,3.6587,3.6572,3.6562,3.6562,3.6559,3.657,3.6528,3.6524,3.652,3.6507,3.6502,3.6566,3.6566,3.6566,3.6567,0,3.6493,3.6489,3.6478,3.6488,3.6488,3.6478,3.6498,3.6496,3.651,3.6521,3.651,3.6518,3.6519,3.6516,3.6528,3.6502,3.6509,3.6525,3.6547,3.6512,3.65,3.6495,3.6563,3.6564,3.6564,3.6565,0,0,3.6423,3.6447,3.6442,3.6448,3.6462,3.6459,3.645,3.6453,3.645,3.6455,3.6448,3.6443,3.6458,3.646,3.6473,3.6464,3.6432,3.648,3.6481,3.6471,3.6404,3.6393,3.6387,3.6443,3.6442,3.6441,3.6404,0,3.6383,3.6372,3.6392,3.6375,3.6372,3.6399,3.6391,3.6398,3.6409,3.6407,3.6417,3.6414,3.6434,3.6435,3.6427,3.6438,3.6419,3.6441,3.6436,3.6435,3.6433,3.638,3.6368,3.6332,3.6399,3.6399,3.6398,0,3.6335,3.634,3.6323,3.634,3.6339,3.6332,3.6337,3.6335,3.6344,3.6352,3.6354,3.6371,3.6363,3.6384,3.6373,3.6387,3.6387,3.6391,3.639,3.639,3.6414,3.6379,3.6321,3.6316,3.6391,3.6391,3.6392,0,3.6286,3.6289,3.628,3.6283,3.6302,3.6296,3.6304,3.6314,3.6314,3.6318,3.6319,3.632,3.6321,3.6322,3.6338,3.6352,3.6325,3.6348,3.6331,3.633,3.6323,3.6323,3.6264,3.6322,3.6323,3.6323,3.6323,0,3.624,3.6228,3.6258,3.6253,3.6241,3.6264,3.6251,3.6261,3.627,3.6265,3.6288,3.6283,3.6306,3.6303,3.6315,3.6304,3.6304,3.631,3.6314,3.6308,3.6307,3.6308,3.631,3.6321,3.6322,3.6322,3.6322,0,3.6183,3.6203,3.6195,3.6214,3.6219,3.6209,3.6225,3.622,3.6233,3.6227,3.6227,3.6246,3.6244,3.6261,3.6262,3.627,3.6253,3.6261,3.6251,3.6253,3.6236,3.6237,3.6174,3.6167,3.623,3.6229,3.6229,0,3.6152,3.6145,3.6164,3.6164,3.6171,3.617,3.6172,3.6194,3.6194,3.6205,3.6198,3.6199,3.6201,3.6196,3.6209,3.621,3.6218,3.6196,3.6218,3.6213,3.6218,3.6218,3.6218,3.6191,3.619,3.619,3.6189,0,3.6095,3.6106,3.6108,3.6114,3.6116,3.6122,3.6128,3.6126,3.6151,3.615,3.615,3.6151,3.6153,3.6154,3.6157,3.6163,3.618,3.6183,3.6179,3.6173,3.6168,3.6171,3.6238,3.6184,3.6184,3.6185,3.6185,3.6185,3.6051,3.6046,3.6059,3.6061,3.6069,3.6075,3.6072,3.6085,3.6086,3.6091,3.6104,3.6101,3.6111,3.6118,3.6123,3.612,3.6131,3.6125,3.6124,3.6122,3.6119,3.6168,3.6121,3.6121,3.6121,3.6121,3.6122,0,3.5995,3.6006,3.6008,3.6018,3.6019,3.6037,3.6046,3.6045,3.6044,3.6052,3.6054,3.6054,3.6054,3.6068,3.607,3.6066,3.6074,3.6066,3.6066,3.6067,3.6109,3.6112,3.606,3.606,3.606,3.606,3.606,3.606,3.5966,3.5959,3.5972,3.5969,3.5979,3.5978,3.5982,3.5987,3.5994,3.5994,3.5995,3.6005,3.6016,3.6019,3.602,3.6024,3.6024,3.6013,3.602,3.6058,3.6064,3.607,3.6073,3.6013,3.6013,3.5978,3.5978,3.5978]}]]